Theta_e
314 318 316 319 319 319 320 319 319 321 322 321 321 323 323 324 323 323 324 323 324 326 325 324 324 325 325 326 342 349 356 355 354 351 350 349 348 348 346 346 345 347 345 344
312 312 314 315 317 319 320 320 321 320 319 320 321 320 321 322 323 323 323 324 324 324 325 326 325 325 327 329 343 347 355 356 355 353 351 349 348 348 348 346 347 347 346 346
311 311 311 311 314 314 316 319 319 317 318 319 320 320 320 321 320 320 320 321 321 322 324 325 326 326 327 330 344 351 355 356 355 354 352 350 349 349 349 350 350 348 347 345
311 311 311 311 311 312 313 314 316 318 320 323 320 320 321 321 321 321 320 320 321 321 321 323 324 326 326 328 342 351 355 356 356 354 354 352 350 349 349 348 348 346 342 339
310 310 310 310 310 310 310 312 315 316 323 323 322 320 320 321 322 322 323 322 321 321 321 321 322 324 326 327 331 350 353 356 356 355 355 352 350 349 348 347 346 347 349 348
311 311 311 310 310 310 311 311 312 312 316 328 323 320 322 320 320 321 322 321 322 322 321 321 320 321 325 326 328 342 352 353 355 356 354 354 351 348 347 346 346 347 350 349
312 312 311 310 311 311 312 313 317 318 322 321 319 322 321 320 320 321 321 322 322 322 321 321 320 320 322 325 326 331 348 353 354 356 355 355 353 348 347 345 346 345 348 348
313 313 312 312 312 311 312 314 319 316 319 318 319 320 321 321 320 319 319 320 321 322 322 321 320 320 320 322 326 328 340 350 355 354 356 354 353 350 348 344 342 345 346 346
314 313 311 312 312 313 314 314 314 315 315 317 320 319 322 321 320 320 321 320 320 321 321 322 321 320 321 321 325 326 332 347 351 354 354 354 353 351 346 345 342 344 344 345
312 314 312 312 312 312 314 315 317 317 318 319 318 319 324 321 319 319 320 320 320 320 321 322 322 321 322 322 324 326 329 342 349 353 353 354 353 351 347 347 342 344 346 348
311 314 313 312 315 315 314 315 316 317 318 321 320 321 322 321 322 322 324 324 323 321 322 322 322 323 322 324 325 326 327 336 349 352 353 352 352 351 350 347 343 345 347 348
311 313 315 314 315 315 315 317 317 320 317 318 320 319 320 323 322 326 325 322 322 322 322 323 323 324 324 324 325 326 328 335 342 350 351 338 341 348 350 349 345 348 345 347
311 313 315 315 318 317 316 315 317 315 319 321 321 321 321 322 321 321 322 321 320 319 319 320 322 324 324 325 325 326 326 335 340 344 352 349 332 332 336 340 336 349 347 347
310 314 313 315 315 314 316 315 314 318 324 320 320 321 322 321 319 320 321 320 320 319 319 319 320 323 325 325 324 326 326 328 337 342 346 349 348 344 342 333 339 350 348 349
312 315 313 314 315 314 314 315 315 316 316 317 318 318 318 318 320 321 318 319 319 321 321 321 322 322 323 326 327 327 328 326 332 339 343 347 349 350 348 345 350 350 349 348
311 314 313 315 316 316 316 316 317 318 317 317 317 317 318 318 316 319 319 320 320 321 321 322 323 326 324 327 328 327 330 327 330 335 341 346 349 350 350 349 350 348 348 346
310 313 314 316 315 316 321 317 316 314 313 312 314 314 314 315 316 318 318 318 320 320 320 320 322 324 328 328 329 331 329 329 331 334 340 347 349 350 351 350 350 348 346 342
313 314 313 316 317 324 319 310 310 312 311 310 310 309 309 310 310 312 311 313 315 316 316 316 318 321 324 326 328 333 329 331 332 336 344 347 350 348 349 349 345 344 341 335
313 310 315 318 317 317 315 311 310 309 310 308 308 308 306 305 308 310 307 308 310 310 311 312 313 315 319 323 328 336 331 332 339 338 340 342 343 345 345 345 342 341 335 330
314 311 313 315 319 322 312 309 308 309 315 310 307 305 304 305 311 306 305 306 307 307 309 311 314 317 321 323 334 336 334 338 339 338 339 342 344 343 340 340 338 333 329 326
315 314 316 316 317 319 310 307 307 316 312 309 306 303 303 306 304 302 302 304 306 306 307 311 314 317 322 327 332 334 334 334 335 335 337 339 340 338 336 335 332 327 324 322
316 315 314 314 316 316 306 305 307 307 308 307 306 305 304 303 302 301 301 301 304 305 306 308 313 317 321 325 331 331 332 333 333 333 335 334 333 333 330 328 324 322 319 318
315 312 311 311 314 308 305 303 306 305 307 306 305 303 302 301 302 302 300 302 303 304 304 305 308 312 316 318 322 328 323 328 330 332 329 325 326 324 322 322 319 318 319 317
313 311 312 311 311 307 303 303 305 305 305 304 303 302 302 302 303 301 300 301 302 302 303 304 306 308 309 311 313 315 317 321 325 324 320 316 317 316 317 317 317 316 314 313
311 310 312 310 308 304 304 303 303 304 303 303 301 301 303 303 303 303 302 302 301 302 302 302 304 305 306 308 309 310 312 314 315 316 315 314 313 315 316 314 311 312 312 311
312 311 311 312 305 303 302 302 302 303 302 302 302 303 303 304 304 303 303 304 302 302 303 302 302 304 305 307 307 308 309 312 311 310 311 312 313 310 310 309 308 308 308 308
Wind_Speed
22 13 15 24 16 29 27 29 32 26 21 17 23 21 20 21 26 19 19 21 19 19 22 29 30 29 29 34 35 37 39 44 39 42 39 35 33 28 26 24 25 22 23 23
17 20 22 20 17 17 21 25 27 25 25 24 24 23 23 20 22 25 22 23 26 26 24 24 26 26 25 27 35 37 38 43 44 44 40 36 32 28 27 27 29 28 25 26
18 22 25 19 17 17 22 25 23 26 26 27 28 29 28 25 29 35 35 35 33 33 30 28 28 26 25 29 33 34 40 44 48 43 40 35 31 29 29 28 28 33 29 28
18 17 13 17 18 21 18 19 23 22 20 18 25 22 25 25 27 29 34 39 36 36 37 33 31 31 29 29 30 31 36 43 48 48 41 40 37 36 33 28 29 30 31 29
21 21 20 17 18 19 22 22 20 17 20 22 28 17 20 24 23 23 20 27 41 41 40 39 36 33 33 28 30 33 35 41 45 48 42 43 38 33 30 27 28 26 27 26
17 13 16 17 20 16 18 20 22 20 15 12 22 22 22 21 26 21 22 29 31 30 33 38 39 37 36 32 32 33 36 36 44 44 47 42 43 33 32 32 30 28 23 27
22 12 18 6 13 16 10 15 11 11 14 16 18 22 22 21 24 23 17 20 25 24 29 33 37 38 37 37 33 35 36 38 41 46 46 40 41 38 34 37 35 31 28 29
12 18 5 2 17 20 20 9 7 11 14 14 9 13 22 28 26 27 26 22 16 18 20 28 33 36 37 37 36 37 37 38 36 45 47 48 43 44 37 39 41 34 33 31
14 13 28 20 12 2 12 17 16 18 21 15 9 12 22 22 8 8 9 15 23 23 16 22 28 29 32 36 35 36 37 36 38 40 49 49 49 47 45 43 43 37 32 33
10 16 15 11 19 12 9 17 8 8 10 16 13 19 15 18 17 14 9 16 17 19 21 16 17 20 23 27 30 35 36 37 37 40 48 49 50 48 44 42 44 36 33 33
16 6 12 22 7 14 8 11 11 11 8 4 10 4 15 6 8 8 7 14 6 5 9 12 17 18 19 20 27 30 36 37 35 40 46 47 43 43 45 49 44 35 38 35
10 6 13 24 10 4 4 7 5 5 10 13 16 13 7 18 7 15 8 8 7 8 9 11 9 14 19 22 24 24 28 36 35 35 37 45 40 30 30 31 35 44 35 37
7 4 10 11 1 7 14 7 5 6 10 17 13 10 10 22 4 2 6 7 1 6 11 15 14 13 16 21 24 23 25 32 35 34 32 36 46 59 56 39 24 29 41 36
9 5 11 10 20 22 18 19 14 10 4 12 15 16 28 9 18 23 29 10 12 14 17 18 17 16 15 15 23 24 23 29 34 33 31 28 33 40 45 47 43 53 40 38
2 8 16 21 21 21 22 20 15 15 17 16 21 24 20 15 6 18 20 18 16 15 15 15 14 16 17 13 16 19 23 22 31 35 31 30 35 38 40 45 44 33 36 36
3 6 19 22 17 11 14 15 16 13 14 20 23 29 26 25 30 27 21 21 21 18 17 17 20 20 17 14 12 17 19 20 25 33 34 32 33 40 42 43 41 41 39 37
3 4 6 9 20 18 6 1 4 10 18 20 16 22 22 24 21 22 21 14 15 15 15 15 16 19 19 9 15 15 20 22 22 29 32 33 35 38 40 41 44 46 46 40
7 10 2 10 15 3 6 10 10 13 17 10 12 16 19 22 26 14 9 12 14 15 17 18 18 18 19 18 19 16 18 22 23 25 28 34 38 40 42 47 48 47 42 39
11 1 4 5 8 11 4 9 17 13 15 3 9 12 16 20 17 1 17 13 13 15 17 19 20 21 20 21 20 18 20 22 25 31 35 38 38 44 43 48 45 41 39 35
5 4 2 6 6 3 4 26 36 8 3 8 12 9 11 18 5 5 19 14 13 13 13 17 19 20 18 16 14 18 17 22 24 30 38 41 45 46 47 48 44 39 38 35
8 7 4 8 4 1 17 27 34 7 8 18 16 13 14 6 7 13 16 17 13 10 10 10 12 14 14 13 17 22 27 29 28 31 38 40 42 46 47 46 43 43 38 34
4 6 5 5 4 5 30 14 8 10 17 15 16 17 17 17 19 21 20 23 23 17 12 8 4 4 11 16 20 25 29 29 29 33 34 38 44 45 45 47 44 42 42 40
4 1 3 3 4 12 18 20 21 17 14 16 17 19 18 23 23 25 26 28 29 26 19 19 22 20 17 16 21 30 32 32 33 32 36 42 44 45 46 48 47 42 38 32
5 8 2 6 3 12 12 22 18 16 15 17 19 21 23 24 26 28 30 31 32 33 29 23 28 33 32 27 27 33 33 34 37 42 43 43 47 47 45 41 39 36 31 26
4 8 10 3 5 15 10 20 17 15 15 18 19 21 21 23 27 26 29 31 35 36 36 32 29 32 34 33 32 30 34 38 41 44 45 44 44 44 42 39 31 28 23 23
2 3 5 3 7 4 6 14 14 14 15 15 15 18 21 22 23 25 28 28 31 35 37 40 33 27 28 29 31 31 31 31 38 42 43 42 44 43 42 39 38 30 27 26
Wind_Direction
295 241 263 286 315 330 294 260 271 280 287 250 261 249 241 243 240 224 224 237 243 240 237 231 226 220 221 220 205 204 203 203 201 200 198 199 201 201 199 201 199 208 199 199
279 268 268 264 287 299 299 291 283 269 269 272 270 266 264 265 268 268 251 236 245 245 235 234 227 219 215 222 204 203 205 202 201 200 199 201 199 204 201 201 203 199 206 199
308 301 305 294 253 254 285 288 287 281 277 259 255 252 249 251 255 254 252 249 245 246 241 231 228 223 223 225 206 203 205 206 204 200 200 199 200 200 200 199 200 204 204 201
295 288 293 303 287 293 259 255 271 312 298 280 251 259 250 236 240 242 243 245 241 235 240 241 231 225 222 220 213 207 208 208 207 202 199 199 194 200 203 204 210 211 212 210
293 297 289 292 292 299 288 275 273 281 262 271 265 256 250 255 255 242 246 241 231 232 233 236 231 229 221 218 218 207 210 210 208 206 199 200 198 201 198 197 199 194 199 194
281 295 288 280 281 276 280 278 276 269 260 252 248 254 258 245 238 245 244 243 243 236 231 231 230 226 221 217 214 209 203 215 211 208 203 203 200 196 194 192 190 188 194 192
322 354 333 243 322 291 306 261 256 266 249 256 252 231 243 256 257 252 244 248 231 235 227 228 229 224 219 215 214 212 205 208 210 209 210 204 202 191 196 190 188 188 190 190
333 319 182 186 289 301 307 209 265 255 253 266 272 272 239 241 243 253 251 244 249 242 235 228 226 222 220 218 209 212 206 205 208 210 210 208 203 197 194 193 194 189 187 187
318 305 321 292 306 84 308 297 289 284 277 267 245 288 282 254 253 213 247 258 242 240 246 239 224 224 219 218 210 209 212 203 207 208 212 211 207 197 191 197 192 185 183 185
300 301 299 323 319 271 256 294 288 229 258 253 260 235 221 232 210 205 246 217 234 225 225 236 236 217 219 222 215 206 216 208 207 210 211 212 208 197 191 196 185 178 176 185
307 257 286 298 259 295 323 261 207 246 263 270 277 352 14 105 309 90 51 40 34 213 232 225 235 238 221 225 220 205 213 209 205 210 210 207 208 188 190 196 182 177 180 194
318 290 293 296 300 343 183 294 284 280 264 286 295 262 307 320 87 98 321 96 64 359 347 289 282 243 226 225 224 223 213 212 209 213 208 213 221 219 195 184 174 184 188 196
335 261 306 306 159 263 331 293 235 194 263 266 280 285 160 216 94 322 188 224 242 302 298 295 280 262 234 238 226 219 210 213 209 211 209 211 206 216 240 236 227 201 187 188
281 241 239 269 293 311 300 305 288 228 259 289 278 266 277 60 338 320 303 305 310 298 290 279 271 262 258 238 231 222 208 211 209 207 203 197 195 196 202 206 210 197 178 173
286 273 277 279 281 284 285 287 290 284 271 276 291 287 287 306 231 227 262 296 296 296 286 288 274 256 251 244 242 243 217 210 207 203 202 191 188 185 188 183 193 187 169 167
315 276 305 296 295 275 270 295 316 312 337 319 312 294 299 331 320 303 306 309 301 282 284 288 290 294 265 250 252 237 236 213 206 207 197 190 183 183 183 183 175 175 170 166
255 278 307 294 327 314 248 73 6 321 310 304 288 298 318 308 312 313 304 304 284 287 290 286 282 275 294 262 270 266 228 216 206 207 197 182 185 182 175 172 173 171 168 165
250 287 298 294 319 4 66 54 320 278 287 292 289 293 301 295 290 286 9 323 305 304 298 293 282 273 266 259 261 260 230 213 203 199 186 182 182 178 170 173 169 168 173 170
212 253 286 301 310 279 76 350 335 319 310 266 289 321 314 316 303 93 -0 334 320 306 298 290 284 278 268 255 257 249 221 217 180 189 190 192 190 178 175 175 169 174 170 161
4 180 246 300 293 327 357 345 330 330 253 329 20 348 341 347 31 348 344 337 321 316 299 288 285 286 273 252 250 230 205 179 176 184 190 189 184 183 175 177 173 167 157 155
348 344 297 315 288 345 10 341 326 353 329 357 10 4 357 8 9 358 7 12 4 353 314 293 290 275 250 224 216 191 191 193 183 177 174 173 177 177 173 172 169 160 151 148
8 324 343 321 315 346 2 340 357 306 327 359 12 15 18 21 21 17 20 16 22 34 30 54 102 180 162 161 192 172 175 177 174 168 167 168 167 170 167 163 152 149 150 152
17 46 289 296 312 340 338 327 347 351 11 22 31 26 25 28 21 26 26 22 29 40 46 65 82 99 110 136 152 164 151 163 167 165 161 158 160 158 156 155 152 151 156 149
331 352 254 310 39 338 352 353 355 14 30 36 40 36 33 26 24 30 29 27 32 42 51 66 84 89 90 104 119 131 144 153 158 154 150 143 145 141 147 150 148 144 138 141
258 320 316 288 325 322 7 358 3 23 41 43 47 38 32 29 27 28 33 36 36 41 51 61 79 88 90 106 111 122 133 141 143 146 146 144 141 147 143 135 135 134 140 147
19 298 354 309 14 309 315 355 16 35 36 41 38 35 36 33 38 30 29 33 42 46 56 64 70 82 92 107 112 119 128 143 140 134 143 147 146 143 143 141 137 135 138 141